User: anonymous   Login
Location: Valdosta
(30.8330°N, 83.2790°W)
Time: 19:05:32
(UTC-04:00)
Language:

Uribyol 2 - Orbit

View from above orbital plane
View from above orbital plane
View from above satellite
View from above satellite

Ground track
Ground track

The orbit data is extracted from the following two-line orbital elements,

1 22828U 93061F   16124.44465693  .00000038  00000-0  31702-4 0  9994
2 22828  98.7406  79.5383 0010840  53.1756 307.0419 14.30585705147355
Epoch (UTC): 03 May 2016 10:40:18
Eccentricity: 0.0010840
inclination: 98.7406°
perigee height: 782 km
apogee height: 797 km
right ascension of ascending node: 79.5383°
argument of perigee: 53.1756°
revolutions per day: 14.30585705
mean anomaly at epoch: 307.0419°
orbit number at epoch: 14735

The dashed part of the orbit path shows where the satellite is in the earth's shadow,  

DLR